Home   Weather   Phnom Penh   Past weeks

Flag for Cambodia Past Weather in Phnom Penh, Cambodia — Yesterday and Last 2 Weeks

Now
90 °F

Scattered clouds.


Feels Like: 103 °F
Forecast: 76 / 91 °F
Wind: 7 mph from North

Location: Phnom-Penh / Pochentong

Current Time: Apr 28, 2017 at 3:20:12 pm

Latest Report: Apr 28, 2017 at 2:30 pm


Visibility: N/A

Pressure: 29.71 "Hg

Humidity: 67%

Dew Point: 77 °F

Location of Phnom PenhLocation

Past Weather in Phnom Penh — Graph

°F

Phnom Penh Temperature Yesterday

Maximum temperature yesterday: 95 °F (at 1:00 pm)
Minimum temperature yesterday: 81 °F (at 2:30 am)
Average temperature yesterday: 86 °F

High & Low Weather Summary for the Past Weeks

 TemperatureHumidityPressure
High100 °F (Apr 21, 2:30 pm)100% (Apr 15, 6:00 am)29.92 "Hg (Apr 15, 6:00 am)
Low79 °F (Apr 14, 12:00 am)34% (Apr 23, 4:30 pm)29.65 "Hg (Apr 22, 3:30 pm)
Average88 °F68%29.78 "Hg
* Reported Apr 13 3:00 pm — Apr 28 2:00 pm, Phnom Penh, Weather by CustomWeather, © 2017

Note: Actual official high and low records may vary slightly from our data, if they occured in-between our weather recording intervals... More about our weather records

Advertising

Phnom Penh Weather History for the Previous 24 Hours

Scroll right to see more
 ConditionsComfort  
Time TempWeatherWind HumidityBarometerVisibility
2:00 pm
Fri, Apr 28
93 °FScattered clouds.3 mph59%29.71 "HgN/A
1:30 pm93 °FScattered clouds.7 mph56%29.74 "HgN/A
1:00 pm95 °FScattered clouds.6 mph53%29.74 "HgN/A
12:30 pm93 °FScattered clouds.6 mph59%29.77 "HgN/A
12:00 pm93 °FScattered clouds.5 mph59%29.80 "HgN/A
11:30 am93 °FScattered clouds.3 mph59%29.80 "HgN/A
11:00 am91 °FScattered clouds.6 mph63%29.83 "HgN/A
10:30 am91 °FScattered clouds.5 mph63%29.83 "HgN/A
10:00 am91 °FScattered clouds.5 mph63%29.83 "HgN/A
9:30 am88 °FScattered clouds.5 mph75%29.83 "HgN/A
9:00 am88 °FScattered clouds.3 mph75%29.83 "HgN/A
8:30 am86 °FPassing clouds.5 mph79%29.83 "HgN/A
8:00 am86 °FPassing clouds.6 mph79%29.83 "HgN/A
7:30 am84 °FSunny.8 mph84%29.80 "Hg10 mi
7:00 am82 °FClear.7 mph89%29.80 "Hg6 mi
6:30 am81 °FClear.5 mph94%29.83 "Hg6 mi
6:00 am81 °FPassing clouds.2 mph94%29.80 "HgN/A
2:30 am81 °FPassing clouds.2 mph89%29.77 "Hg6 mi
2:00 am82 °FPassing clouds.3 mph89%29.77 "Hg6 mi
1:30 am82 °FPassing clouds.3 mph89%29.77 "Hg6 mi
1:00 am82 °FPassing clouds.2 mph89%29.80 "Hg6 mi
12:30 am82 °FPassing clouds.3 mph89%29.80 "Hg6 mi
12:00 am82 °FPassing clouds.3 mph89%29.80 "Hg6 mi
11:30 pm
Thu, Apr 27
82 °FPassing clouds.3 mph84%29.80 "Hg6 mi
11:00 pm82 °FPassing clouds.1 mph84%29.80 "Hg6 mi
10:30 pm82 °FPassing clouds.1 mph84%29.83 "Hg6 mi
10:00 pm82 °FPassing clouds.3 mph84%29.83 "Hg6 mi
9:30 pm82 °FPassing clouds.5 mph84%29.80 "Hg6 mi
9:00 pm82 °FPassing clouds.3 mph84%29.80 "Hg6 mi
8:30 pm82 °FPassing clouds.3 mph84%29.80 "Hg6 mi
8:00 pm84 °FPassing clouds.3 mph74%29.77 "Hg6 mi
7:30 pm84 °FPassing clouds.5 mph74%29.77 "Hg6 mi
7:00 pm84 °FPassing clouds.5 mph74%29.74 "Hg6 mi
6:30 pm86 °FPassing clouds.5 mph70%29.74 "Hg6 mi
5:30 pm86 °FScattered clouds.1 mph70%29.71 "HgN/A
5:00 pm86 °FLight rain. Scattered clouds.6 mph70%29.71 "Hg6 mi
4:30 pm86 °FScattered clouds.5 mph70%29.71 "HgN/A
4:00 pm86 °FScattered clouds.10 mph70%29.71 "HgN/A
3:30 pm91 °FScattered clouds.12 mph56%29.71 "HgN/A
3:00 pm91 °FThunderstorms. Scattered clouds.10 mph59%29.71 "HgN/A
Weather by CustomWeather, © 2017

See weather overviewHow to use our weather pages